This is the latest recevied weather packets stored in our database for station/object LU4EGV-13. If no packets are shown the sender has not sent any weather packets the latest 10 day(s).
| Time | Temp. | Humidity | Pressure | Rain* | Wind** | Luminosity | Snow |
|---|---|---|---|---|---|---|---|
| 1777633623 | 16.67° C | 85% | 1008.4 hPa | 0 mm | - | - | - |
| 1777633017 | 16.67° C | 85% | 1008.3 hPa | 0 mm | - | - | - |
| 1777632411 | 16.67° C | 85% | 1008.4 hPa | 0 mm | - | - | - |
| 1777631805 | 16.67° C | 85% | 1008.6 hPa | 0 mm | - | - | - |
| 1777631199 | 16.67° C | 85% | 1008.3 hPa | 0 mm | - | - | - |
| 1777630593 | 16.67° C | 86% | 1008.4 hPa | 0 mm | - | - | - |
| 1777629986 | 16.67° C | 87% | 1008.3 hPa | 0 mm | - | - | - |
| 1777629381 | 17.22° C | 86% | 1008.5 hPa | 0 mm | - | - | - |
| 1777628785 | 17.22° C | 87% | 1008.6 hPa | 0 mm | - | - | - |
| 1777628168 | 17.22° C | 88% | 1008.6 hPa | 0 mm | - | - | - |
| 1777627562 | 16.67° C | 89% | 1008.6 hPa | 0 mm | - | - | - |
| 1777626956 | 16.67° C | 90% | 1008.6 hPa | 0 mm | - | - | - |
| 1777626349 | 16.67° C | 91% | 1008.7 hPa | 0 mm | - | - | - |
| 1777625743 | 16.11° C | 91% | 1008.8 hPa | 0 mm | - | - | - |
| 1777625137 | 16.11° C | 91% | 1008.7 hPa | 0 mm | - | - | - |
| 1777624530 | 16.11° C | 92% | 1008.9 hPa | 0 mm | - | - | - |
| 1777623924 | 16.11° C | 92% | 1009 hPa | 0 mm | - | - | - |
| 1777623321 | 15.56° C | 93% | 1008.9 hPa | 0 mm | - | - | - |
| 1777622711 | 15.56° C | 93% | 1008.9 hPa | 0 mm | - | - | - |
| 1777622106 | 15.56° C | 93% | 1008.6 hPa | 0 mm | - | - | - |
| 1777621500 | 15.56° C | 93% | 1008.9 hPa | 0 mm | - | - | - |
| 1777620894 | 15.56° C | 93% | 1008.8 hPa | 0 mm | - | - | - |
| 1777620287 | 15.56° C | 93% | 1009 hPa | 0 mm | - | - | - |
| 1777619682 | 15.56° C | 92% | 1009.1 hPa | 0 mm | - | - | - |
| 1777619075 | 15° C | 92% | 1009.1 hPa | 0 mm | - | - | - |
* Rain latest hour (hover to see other rain measurements)
** Current wind speed in m/s (hover to see current wind gust speed)